When you browse on this site, cookies collect data to enhance your experience and personalize the content and advertising you see.
Visit our Privacy Policy to learn more. By continuing to use the site, you agree to this use of cookies and data.
  • In Switzerland
  • List of Countries
  • For 7 days
  • Water Temperature
  • Weather Map
  • Weather Widgets
  • user-avatar
    Login

    Hourly Weather Ahtopol

    Today, 10 April, Friday

    Time Temperature Precipitation Wind Pressure Humidity
    00:00 +9°C° 0 mm 1 mps 762 mmHg 60%
    01:00 +9°C° 0 mm 1 mps 762 mmHg 60%
    02:00 +8°C° 0 mm 2 mps 761 mmHg 61%
    03:00 +8°C° 0 mm 2 mps 761 mmHg 62%
    04:00 +8°C° 0 mm 2 mps 761 mmHg 63%
    05:00 +8°C° 0 mm 2 mps 761 mmHg 64%
    06:00 +9°C° 0 mm 2 mps 761 mmHg 62%
    07:00 +12°C° 0 mm 2 mps 761 mmHg 60%
    08:00 +14°C° 0 mm 2 mps 761 mmHg 57%
    09:00 +16°C° 0 mm 2 mps 761 mmHg 53%
    10:00 +18°C° 0 mm 2 mps 761 mmHg 49%
    11:00 +20°C° 0 mm 2 mps 761 mmHg 45%
    12:00 +21°C° 0 mm 2 mps 760 mmHg 43%
    13:00 +23°C° 0 mm 2 mps 760 mmHg 42%
    14:00 +24°C° 0 mm 3 mps 760 mmHg 39%
    15:00 +22°C° 0 mm 3 mps 759 mmHg 44%
    16:00 +21°C° 0 mm 3 mps 759 mmHg 48%
    17:00 +21°C° 0 mm 2 mps 759 mmHg 53%
    18:00 +18°C° 0 mm 2 mps 759 mmHg 57%
    19:00 +16°C° 0 mm 1 mps 760 mmHg 61%
    20:00 +14°C° 0 mm 1 mps 760 mmHg 65%
    21:00 +13°C° 0 mm 1 mps 760 mmHg 66%
    22:00 +13°C° 0 mm 1 mps 761 mmHg 67%
    23:00 +13°C° 0 mm 1 mps 761 mmHg 67%

    Tomorrow, 11 April, Saturday

    Time Temperature Precipitation Wind Pressure Humidity
    00:00 +12°C° 0 mm 1 mps 761 mmHg 69%
    01:00 +12°C° 0 mm 2 mps 761 mmHg 71%
    02:00 +12°C° 0 mm 2 mps 762 mmHg 72%
    03:00 +10°C° 0 mm 3 mps 762 mmHg 74%
    04:00 +9°C° 0 mm 3 mps 762 mmHg 76%
    05:00 +9°C° 0 mm 3 mps 763 mmHg 78%
    06:00 +10°C° 0 mm 3 mps 763 mmHg 74%
    07:00 +11°C° 0 mm 3 mps 763 mmHg 69%
    08:00 +12°C° 0 mm 4 mps 764 mmHg 65%
    09:00 +13°C° 0 mm 4 mps 764 mmHg 61%
    10:00 +14°C° 0 mm 4 mps 765 mmHg 56%
    11:00 +15°C° 0 mm 4 mps 765 mmHg 52%
    12:00 +15°C° 0 mm 5 mps 765 mmHg 52%
    13:00 +15°C° 0 mm 5 mps 765 mmHg 51%
    14:00 +15°C° 0 mm 5 mps 765 mmHg 51%
    15:00 +14°C° 0 mm 5 mps 765 mmHg 53%
    16:00 +13°C° 0 mm 4 mps 765 mmHg 54%
    17:00 +12°C° 0 mm 4 mps 765 mmHg 56%
    18:00 +10°C° 0 mm 3 mps 765 mmHg 60%
    19:00 +9°C° 0 mm 2 mps 766 mmHg 64%
    20:00 +7°C° 0 mm 2 mps 766 mmHg 68%
    21:00 +8°C° 0 mm 1 mps 766 mmHg 68%
    22:00 +8°C° 0 mm 1 mps 767 mmHg 67%
    23:00 +7°C° 0 mm 1 mps 767 mmHg 66%

    Day after tomorrow, 12 April, Sunday

    Time Temperature Precipitation Wind Pressure Humidity
    00:00 +6°C° 0 mm 0 mps 767 mmHg 66%
    01:00 +6°C° 0 mm 0 mps 767 mmHg 65%
    02:00 +6°C° 0 mm 0 mps 767 mmHg 64%
    03:00 +5°C° 0 mm 0 mps 767 mmHg 64%
    04:00 +5°C° 0 mm 0 mps 767 mmHg 64%
    05:00 +6°C° 0 mm 1 mps 767 mmHg 63%
    06:00 +7°C° 0 mm 0 mps 768 mmHg 60%
    07:00 +9°C° 0 mm 0 mps 768 mmHg 56%
    08:00 +10°C° 0 mm 0 mps 768 mmHg 52%
    09:00 +13°C° 0 mm 1 mps 768 mmHg 49%
    10:00 +14°C° 0 mm 2 mps 768 mmHg 46%
    11:00 +14°C° 0 mm 3 mps 768 mmHg 43%
    12:00 +14°C° 0 mm 3 mps 768 mmHg 43%
    13:00 +14°C° 0 mm 4 mps 768 mmHg 43%
    14:00 +15°C° 0 mm 4 mps 767 mmHg 43%
    15:00 +14°C° 0 mm 4 mps 767 mmHg 46%
    16:00 +13°C° 0 mm 4 mps 767 mmHg 48%
    17:00 +12°C° 0 mm 3 mps 766 mmHg 51%
    18:00 +10°C° 0 mm 3 mps 766 mmHg 56%
    19:00 +8°C° 0 mm 2 mps 766 mmHg 62%
    20:00 +7°C° 0 mm 2 mps 766 mmHg 68%
    21:00 +7°C° 0 mm 1 mps 766 mmHg 70%
    22:00 +7°C° 0 mm 1 mps 766 mmHg 72%
    23:00 +6°C° 0 mm 1 mps 766 mmHg 74%

    13 April, Monday

    Time Temperature Precipitation Wind Pressure Humidity
    00:00 +6°C° 0 mm 1 mps 766 mmHg 75%
    01:00 +5°C° 0 mm 1 mps 765 mmHg 77%
    02:00 +5°C° 0 mm 1 mps 765 mmHg 78%
    03:00 +5°C° 0 mm 1 mps 765 mmHg 78%
    04:00 +5°C° 0 mm 1 mps 765 mmHg 78%
    05:00 +4°C° 0 mm 1 mps 764 mmHg 78%
    06:00 +6°C° 0 mm 1 mps 764 mmHg 71%
    07:00 +8°C° 0 mm 1 mps 764 mmHg 63%
    08:00 +10°C° 0 mm 1 mps 764 mmHg 56%
    09:00 +12°C° 0 mm 1 mps 764 mmHg 51%
    10:00 +13°C° 0 mm 2 mps 764 mmHg 47%
    11:00 +15°C° 0 mm 2 mps 763 mmHg 42%
    12:00 +16°C° 0 mm 2 mps 763 mmHg 44%
    13:00 +16°C° 0 mm 3 mps 763 mmHg 45%
    14:00 +17°C° 0 mm 3 mps 762 mmHg 47%
    15:00 +16°C° 0 mm 3 mps 762 mmHg 51%
    16:00 +14°C° 0 mm 3 mps 761 mmHg 56%
    17:00 +13°C° 0 mm 3 mps 761 mmHg 61%
    18:00 +11°C° 0 mm 3 mps 761 mmHg 67%
    19:00 +10°C° 0 mm 2 mps 761 mmHg 73%
    20:00 +8°C° 0 mm 2 mps 761 mmHg 79%
    21:00 +8°C° 0 mm 2 mps 760 mmHg 80%
    22:00 +9°C° 0 mm 1 mps 760 mmHg 80%
    23:00 +9°C° 0 mm 1 mps 760 mmHg 80%

    14 April, Tuesday

    Time Temperature Precipitation Wind Pressure Humidity
    00:00 +9°C° 0 mm 1 mps 759 mmHg 78%
    01:00 +8°C° 0 mm 2 mps 759 mmHg 77%
    02:00 +9°C° 0 mm 2 mps 758 mmHg 75%
    03:00 +9°C° 0 mm 2 mps 758 mmHg 74%
    04:00 +9°C° 0 mm 2 mps 758 mmHg 74%
    05:00 +9°C° 0 mm 2 mps 758 mmHg 73%
    06:00 +10°C° 0 mm 3 mps 758 mmHg 72%
    07:00 +12°C° 0 mm 3 mps 757 mmHg 71%
    08:00 +13°C° 0 mm 4 mps 757 mmHg 70%
    09:00 +15°C° 0 mm 4 mps 757 mmHg 66%
    10:00 +18°C° 0 mm 4 mps 757 mmHg 62%
    11:00 +21°C° 0 mm 4 mps 757 mmHg 57%
    12:00 +21°C° 0 mm 4 mps 757 mmHg 55%
    13:00 +22°C° 0 mm 4 mps 756 mmHg 53%
    14:00 +22°C° 0 mm 5 mps 756 mmHg 51%
    15:00 +22°C° 0.1 mm 5 mps 755 mmHg 55%
    16:00 +21°C° 0.1 mm 5 mps 755 mmHg 60%
    17:00 +20°C° 0.1 mm 5 mps 754 mmHg 64%
    18:00 +19°C° 0.3 mm 4 mps 754 mmHg 69%
    19:00 +17°C° 0.3 mm 4 mps 754 mmHg 74%
    20:00 +14°C° 0.3 mm 4 mps 754 mmHg 79%
    21:00 +14°C° 0.3 mm 4 mps 755 mmHg 82%
    22:00 +13°C° 0.3 mm 4 mps 755 mmHg 84%
    23:00 +13°C° 0.3 mm 5 mps 755 mmHg 87%

    15 April, Wednesday

    Time Temperature Precipitation Wind Pressure Humidity
    00:00 +10°C° 2.4 mm 6 mps 756 mmHg 88%
    01:00 +9°C° 2.4 mm 6 mps 757 mmHg 89%
    02:00 +6°C° 2.4 mm 7 mps 758 mmHg 90%
    03:00 +5°C° 0.6 mm 7 mps 759 mmHg 90%
    04:00 +4°C° 0.6 mm 7 mps 760 mmHg 91%
    05:00 +3°C° 0.6 mm 7 mps 761 mmHg 91%
    06:00 +4°C° 0 mm 6 mps 761 mmHg 85%
    07:00 +5°C° 0 mm 5 mps 762 mmHg 80%
    08:00 +5°C° 0 mm 4 mps 763 mmHg 74%
    09:00 +7°C° 0 mm 4 mps 763 mmHg 66%
    10:00 +9°C° 0 mm 3 mps 763 mmHg 58%
    11:00 +11°C° 0 mm 3 mps 764 mmHg 50%
    12:00 +11°C° 0 mm 3 mps 764 mmHg 51%
    13:00 +12°C° 0 mm 2 mps 763 mmHg 51%
    14:00 +12°C° 0 mm 2 mps 763 mmHg 51%
    15:00 +12°C° 0 mm 2 mps 763 mmHg 52%
    16:00 +12°C° 0 mm 2 mps 763 mmHg 52%
    17:00 +12°C° 0 mm 2 mps 763 mmHg 53%
    18:00 +9°C° 0 mm 2 mps 763 mmHg 58%
    19:00 +8°C° 0 mm 2 mps 762 mmHg 63%
    20:00 +7°C° 0 mm 3 mps 762 mmHg 68%
    21:00 +5°C° 0 mm 3 mps 762 mmHg 69%
    22:00 +6°C° 0 mm 2 mps 762 mmHg 70%
    23:00 +5°C° 0 mm 2 mps 762 mmHg 71%
    Show more